Regional Weather Roundup
Issued by NWS

Home | Current Version | Previous Version | Graphics & Text | Print | Product List | Glossary On
Versions: 1 2 3 4 5 6 7 8 9 10 11 12 13 14 15 16 17 18 19 20 21 22 23 24 25 26 27 28 29 30 31 32 33 34 35 36 37 38 39 40 41 42 43 44 45 46 47 48 49 50
000
ASUS45 KABQ 081210
RWRNM
NEW MEXICO REGIONAL WEATHER ROUNDUP
NATIONAL WEATHER SERVICE ALBUQUERQUE NM
500 AM MST THU DEC 08 2016

NOTE: "FAIR" MEANS FEW OR NO CLOUDS BELOW 12,000 FEET AGL WITH NO
       SIGNIFICANT WEATHER OR OBSTRUCTIONS TO VISION.

      THIS PRODUCT IS RELEASED AS TWO VERSIONS.  ONE VERSION NEAR
      THE TOP OF THE HOUR CONTAINING PRELIMINARY DATA FROM ALBUQUERQUE
      AND OTHER STATIONS.  A FINAL VERSION WITH ADDITIONAL DATA IS
      ISSUED ABOUT 10 MINUTES AFTER THE HOUR.

NMZ501-503-504-510>518-081300-
NORTHWEST PLATEAU/NORTHCENTRAL MOUNTAINS

CITY           SKY/WX    TMP DP  RH WIND       PRES   REMARKS
FARMINGTON     FAIR      15   5  64 NE7       30.28R WCI   5
6HR MIN TEMP:  14; 6HR MAX TEMP:  19;

LOS ALAMOS     FAIR      14  10  83 S10       30.27S WCI   2
SANTA FE       CLOUDY    15   9  76 SE15      30.30S WCI   0
6HR MIN TEMP:  15; 6HR MAX TEMP:  22;

TAOS           FAIR      10  -2  56 SE3       30.25F
ANGEL FIRE     FAIR      -3  -6  86 CALM      30.19F

$$
NMZ402-403-502-505>509-081300-
WESTCENTRAL MOUNTAINS/SOUTHWEST MOUNTAINS

CITY           SKY/WX    TMP DP  RH WIND       PRES   REMARKS
GALLUP         FAIR      14   9  80 CALM      30.22F
6HR MIN TEMP:  14; 6HR MAX TEMP:  21;

GRANTS         CLOUDY    23  14  68 W7        30.26S WCI  15
SILVER CITY    FAIR      32  29  87 CALM      30.20R

$$
NMZ407-409-411-412-081300-
SOUTHERN DESERTS

CITY           SKY/WX    TMP DP  RH WIND       PRES   REMARKS
DEMING         FAIR      37  23  56 NE14      30.22R WCI  28
6HR MIN TEMP:  37; 6HR MAX TEMP:  45;

LAS CRUCES     CLOUDY    38  19  46 NW6       30.23R WCI  34
HOLLOMAN AFB   CLOUDY    32  17  52 NW5       30.32R WCI  28
T OR C         FAIR      29  15  56 N16       30.25R WCI  17
6HR MIN TEMP:  29; 6HR MAX TEMP:  42;


$$
NMZ519>523-081300-
CENTRAL VALLEYS/CENTRAL HIGHLANDS

CITY           SKY/WX    TMP DP  RH WIND       PRES   REMARKS
ALBUQUERQUE    CLOUDY    24  12  60 E20G30    30.31R WCI  10
6HR MIN TEMP:  24; 6HR MAX TEMP:  32;

DOUBLE EAGLE   CLOUDY    20  11  68 N8        30.29S WCI  11
MORIARTY ARPT  FLURRIES  16   9  72 SE6       30.36S WCI   8
6HR MIN TEMP:  15; 6HR MAX TEMP:  19;

CLINES CORNERS CLOUDY    10   7  87 E13       30.31R WCI  -5
6HR MIN TEMP:  10; 6HR MAX TEMP:  13; 6HR PCP: TRACE;

BELEN          CLOUDY    25  14  62 W7        30.31R WCI  17
6HR MIN TEMP:  25; 6HR MAX TEMP:  32;

SOCORRO        FAIR      24  13  63 N15       30.32R WCI  11
6HR MIN TEMP:  24; 6HR MAX TEMP:  39;


$$
NMZ524>526-539-540-081300-
SOUTHCENTRAL MOUNTAINS

CITY           SKY/WX    TMP DP  RH WIND       PRES   REMARKS
RUIDOSO        FOG       16  14  93 SE10      30.34R VSB<1/4 WCI   3

$$
NMZ527>531-081300-
NORTHEAST HIGHLANDS/NORTHEAST PLAINS

CITY           SKY/WX    TMP DP  RH WIND       PRES   REMARKS
LAS VEGAS      CLOUDY     9   7  92 S5        30.32S WCI   1
6HR MIN TEMP:   4; 6HR MAX TEMP:  11; 6HR PCP: TRACE;

RATON          LGT SNOW   9   5  84 S6        30.33S FOG     WCI  -1
6HR MIN TEMP:   3; 6HR MAX TEMP:  11; 6HR PCP: TRACE;

CLAYTON        CLOUDY    13  10  88 CALM      30.44S
6HR MIN TEMP:   7; 6HR MAX TEMP:  15; 6HR PCP: TRACE;


$$
NMZ532>537-081300-
EASTCENTRAL PLAINS

CITY           SKY/WX    TMP DP  RH WIND       PRES   REMARKS
TUCUMCARI      CLOUDY    20  13  74 E10       30.49R WCI   9
6HR MIN TEMP:  20; 6HR MAX TEMP:  23;

CANNON AFB     CLOUDY    19  19 100 NE12      30.47R WCI   7
6HR MIN TEMP:  20; 6HR MAX TEMP:  22;

CLOVIS AIRPORT CLOUDY    19  12  73 NE13      30.47R WCI   7

$$
NMZ028-029-538-081300-
SOUTHEAST PLAINS

CITY           SKY/WX    TMP DP  RH WIND       PRES   REMARKS
ROSWELL        CLOUDY    28  17  63 NE9       30.48R WCI  19
6HR MIN TEMP:  28; 6HR MAX TEMP:  32;

ARTESIA        CLOUDY    28  23  80 NE9       30.49R WCI  20
CARLSBAD       NOT AVBL


$$




USA.gov is the U.S. government's official web portal to all federal, state and local government web resources and services.